Tracking 31027 objects as of 19-Jul-2025
HD Live streaming from Space Station
objects crossing your sky now

SL-8 R/B

Track SL-8 R/B now!
10-day predictions


NORAD ID: 7686
Int'l Code: 1975-016J
Perigee: 1,464.2 km
Apogee: 1,725.4 km
Inclination: 74.0 °
Period: 117.9 minutes
Semi major axis: 7965 km
RCS: 6.1934 m2 (large)
Launch date: February 28, 1975
Source: Commonwealth of Independent States (former USSR) (CIS)
Launch site: PLESETSK MISSILE AND SPACE COMPLEX (PKMTR)

Note: This is a ROCKET BODY
Your satellite tracking list
STARLINK-30103
Track 1 satellite(s)




NASA's NSSDC Master Catalog

Two Line Element Set (TLE):
1 07686U 75016J   25199.57891139 -.00000094  00000-0 -73148-3 0  9996
2 07686  73.9970 226.4851 0163945  38.4071 131.2929 12.21123660245511
Source of the keplerian elements: AFSPC